This is the latest recevied weather packets stored in our database for station/object N1SU-13. If no packets are shown the sender has not sent any weather packets the latest 10 day(s).
| Time | Temp. | Humidity | Pressure | Rain* | Wind** | Luminosity | Snow |
|---|---|---|---|---|---|---|---|
| 1788039621 | 17.22° C | 77% | 1016.8 hPa | 0 mm | - | - | - |
| 1788038998 | 17.22° C | 76% | 1016.9 hPa | 0 mm | - | - | - |
| 1788038350 | 17.22° C | 76% | 1016.8 hPa | 0 mm | - | - | - |
| 1788037738 | 16.67° C | 78% | 1016.8 hPa | 0 mm | - | - | - |
| 1788037086 | 16.67° C | 78% | 1016.8 hPa | 0 mm | - | - | - |
| 1788035881 | 16.11° C | 76% | 1016.7 hPa | 0 mm | - | - | - |
| 1788035369 | 16.11° C | 75% | 1016.7 hPa | 0 mm | - | - | - |
| 1788035304 | 16.11° C | 76% | 1016.6 hPa | 0 mm | - | - | - |
| 1788034705 | 16.11° C | 78% | 1016.6 hPa | 0 mm | - | - | - |
| 1788033780 | 15.56° C | 82% | 1016.6 hPa | 0 mm | - | - | - |
| 1788033491 | 15.56° C | 81% | 1016.7 hPa | 0 mm | - | - | - |
| 1788033236 | 15° C | 81% | 1016.7 hPa | 0 mm | - | - | - |
| 1788032814 | 15° C | 83% | 1016.7 hPa | 0 mm | - | - | - |
| 1788032218 | 14.44° C | 85% | 1016.7 hPa | 0 mm | - | - | - |
| 1788031645 | 13.89° C | 87% | 1016.6 hPa | 0 mm | - | - | - |
| 1788030946 | 13.33° C | 86% | 1016.7 hPa | 0.76 mm | - | - | - |
| 1788030296 | 12.78° C | 90% | 1016.6 hPa | 1.02 mm | - | - | - |
| 1788029708 | 12.22° C | 91% | 1016.7 hPa | 1.78 mm | - | - | - |
| 1788029599 | 12.22° C | 91% | 1016.6 hPa | 2.03 mm | - | - | - |
| 1788029046 | 12.22° C | 92% | 1016.6 hPa | 2.54 mm | - | - | - |
| 1788028408 | 12.22° C | 91% | 1016.6 hPa | 2.54 mm | - | - | - |
| 1788027746 | 12.22° C | 91% | 1016.4 hPa | 2.79 mm | - | - | - |
| 1788027057 | 12.22° C | 91% | 1016.4 hPa | 2.29 mm | - | - | - |
| 1788026485 | 12.22° C | 91% | 1016.3 hPa | 1.78 mm | - | - | - |
| 1788025889 | 12.22° C | 91% | 1016.3 hPa | 1.27 mm | - | - | - |
* Rain latest hour (hover to see other rain measurements)
** Current wind speed in m/s (hover to see current wind gust speed)